Wetterdaten: Donnerstag, 25.06.2015
Datum Zeit Temp. A. Feuchte A. Luftdruck Regen Wind Richtung Richtung Sonnenschein ET UV Solar Taupunkt Windchill Windben Empfang
25.06.2015 00:00 10,0 C 87 % 1024,2 hPa 0,0 l/m 0,0 km/h (0 Bft) NO 36 0 min 0,000 mm 0,0 UV-I 0 W/m 7,9 C 10,0 C 0,0 km/h (0 Bft) 0,00 %
25.06.2015 00:05 10,1 C 87 % 1024,2 hPa 0,0 l/m 0,0 km/h (0 Bft) N 351 0 min 0,000 mm 0,0 UV-I 0 W/m 8,0 C 10,1 C 0,0 km/h (0 Bft) 0,00 %
25.06.2015 00:10 10,1 C 87 % 1023,9 hPa 0,0 l/m 0,0 km/h (0 Bft) O-NO 58 0 min 0,000 mm 0,0 UV-I 0 W/m 8,0 C 10,1 C 0,0 km/h (0 Bft) 0,00 %
25.06.2015 00:15 10,0 C 87 % 1024,1 hPa 0,0 l/m 0,0 km/h (0 Bft) O-NO 57 0 min 0,000 mm 0,0 UV-I 0 W/m 7,9 C 10,0 C 0,0 km/h (0 Bft) 0,00 %
25.06.2015 00:20 10,0 C 88 % 1024,0 hPa 0,0 l/m 0,0 km/h (0 Bft) NO 51 0 min 0,000 mm 0,0 UV-I 0 W/m 8,1 C 10,0 C 0,0 km/h (0 Bft) 0,00 %
25.06.2015 00:25 10,0 C 88 % 1023,9 hPa 0,0 l/m 0,0 km/h (0 Bft) NO 51 0 min 0,000 mm 0,0 UV-I 0 W/m 8,1 C 10,0 C 0,0 km/h (0 Bft) 0,00 %
25.06.2015 00:30 9,9 C 88 % 1024,0 hPa 0,0 l/m 0,0 km/h (0 Bft) NO 51 0 min 0,000 mm 0,0 UV-I 0 W/m 8,0 C 9,9 C 0,0 km/h (0 Bft) 0,00 %
25.06.2015 00:35 9,9 C 88 % 1024,0 hPa 0,0 l/m 0,0 km/h (0 Bft) NO 51 0 min 0,000 mm 0,0 UV-I 0 W/m 8,0 C 9,9 C 0,0 km/h (0 Bft) 0,00 %
25.06.2015 00:40 9,8 C 89 % 1024,0 hPa 0,0 l/m 0,0 km/h (0 Bft) NO 48 0 min 0,000 mm 0,0 UV-I 0 W/m 8,1 C 9,8 C 0,0 km/h (0 Bft) 0,00 %
25.06.2015 00:45 9,8 C 89 % 1024,1 hPa 0,0 l/m 0,0 km/h (0 Bft) O-NO 58 0 min 0,000 mm 0,0 UV-I 0 W/m 8,1 C 9,8 C 0,0 km/h (0 Bft) 0,00 %
25.06.2015 00:50 9,6 C 89 % 1023,9 hPa 0,0 l/m 0,0 km/h (0 Bft) O 85 0 min 0,000 mm 0,0 UV-I 0 W/m 7,9 C 9,6 C 0,0 km/h (0 Bft) 0,00 %
25.06.2015 00:55 9,5 C 89 % 1024,3 hPa 0,0 l/m 0,0 km/h (0 Bft) O-NO 78 0 min 0,000 mm 0,0 UV-I 0 W/m 7,8 C 9,5 C 0,0 km/h (0 Bft) 0,00 %
25.06.2015 01:00 9,5 C 89 % 1024,3 hPa 0,0 l/m 0,0 km/h (0 Bft) NO 45 0 min 0,000 mm 0,0 UV-I 0 W/m 7,8 C 9,5 C 0,0 km/h (0 Bft) 0,00 %
25.06.2015 01:05 9,4 C 89 % 1024,3 hPa 0,0 l/m 0,0 km/h (0 Bft) O-NO 67 0 min 0,000 mm 0,0 UV-I 0 W/m 7,7 C 9,4 C 0,0 km/h (0 Bft) 0,00 %
25.06.2015 01:10 9,2 C 89 % 1024,4 hPa 0,0 l/m 0,0 km/h (0 Bft) O-NO 62 0 min 0,000 mm 0,0 UV-I 0 W/m 7,5 C 9,2 C 0,0 km/h (0 Bft) 0,00 %
25.06.2015 01:15 9,0 C 90 % 1024,2 hPa 0,0 l/m 0,0 km/h (0 Bft) O-NO 63 0 min 0,000 mm 0,0 UV-I 0 W/m 7,4 C 9,0 C 0,0 km/h (0 Bft) 0,00 %
25.06.2015 01:20 9,0 C 90 % 1024,2 hPa 0,0 l/m 0,0 km/h (0 Bft) O-NO 77 0 min 0,000 mm 0,0 UV-I 0 W/m 7,4 C 9,0 C 0,0 km/h (0 Bft) 0,00 %
25.06.2015 01:25 9,0 C 90 % 1024,2 hPa 0,0 l/m 0,0 km/h (0 Bft) O 83 0 min 0,000 mm 0,0 UV-I 0 W/m 7,4 C 9,0 C 0,0 km/h (0 Bft) 0,00 %
25.06.2015 01:30 9,0 C 90 % 1024,3 hPa 0,0 l/m 0,0 km/h (0 Bft) NO 35 0 min 0,000 mm 0,0 UV-I 0 W/m 7,4 C 9,0 C 0,0 km/h (0 Bft) 0,00 %
25.06.2015 01:35 8,9 C 91 % 1024,5 hPa 0,0 l/m 0,0 km/h (0 Bft) NO 52 0 min 0,000 mm 0,0 UV-I 0 W/m 7,5 C 8,9 C 0,0 km/h (0 Bft) 0,00 %
25.06.2015 01:40 8,8 C 91 % 1024,5 hPa 0,0 l/m 0,0 km/h (0 Bft) NO 44 0 min 0,000 mm 0,0 UV-I 0 W/m 7,4 C 8,8 C 0,0 km/h (0 Bft) 0,00 %
25.06.2015 01:45 8,7 C 91 % 1024,4 hPa 0,0 l/m 0,0 km/h (0 Bft) NO 45 0 min 0,000 mm 0,0 UV-I 0 W/m 7,3 C 8,7 C 0,0 km/h (0 Bft) 0,00 %
25.06.2015 01:50 8,6 C 91 % 1024,5 hPa 0,0 l/m 0,0 km/h (0 Bft) NO 47 0 min 0,000 mm 0,0 UV-I 0 W/m 7,2 C 8,6 C 0,0 km/h (0 Bft) 0,00 %
25.06.2015 01:55 8,5 C 91 % 1024,5 hPa 0,0 l/m 0,0 km/h (0 Bft) NO 47 0 min 0,000 mm 0,0 UV-I 0 W/m 7,1 C 8,5 C 0,0 km/h (0 Bft) 0,00 %
25.06.2015 02:00 8,4 C 91 % 1024,5 hPa 0,0 l/m 0,0 km/h (0 Bft) NO 47 0 min 0,000 mm 0,0 UV-I 0 W/m 7,0 C 8,4 C 0,0 km/h (0 Bft) 0,00 %
25.06.2015 02:05 8,3 C 91 % 1024,5 hPa 0,0 l/m 0,0 km/h (0 Bft) NO 47 0 min 0,000 mm 0,0 UV-I 0 W/m 6,9 C 8,3 C 0,0 km/h (0 Bft) 0,00 %
25.06.2015 02:10 8,2 C 92 % 1024,7 hPa 0,0 l/m 0,0 km/h (0 Bft) NO 47 0 min 0,000 mm 0,0 UV-I 0 W/m 7,0 C 8,2 C 0,0 km/h (0 Bft) 0,00 %
25.06.2015 02:15 8,1 C 92 % 1024,5 hPa 0,0 l/m 0,0 km/h (0 Bft) NO 47 0 min 0,000 mm 0,0 UV-I 0 W/m 6,9 C 8,1 C 0,0 km/h (0 Bft) 0,00 %
25.06.2015 02:20 8,0 C 92 % 1024,6 hPa 0,0 l/m 0,0 km/h (0 Bft) O-NO 71 0 min 0,000 mm 0,0 UV-I 0 W/m 6,8 C 8,0 C 0,0 km/h (0 Bft) 0,00 %
25.06.2015 02:25 8,0 C 92 % 1024,6 hPa 0,0 l/m 0,0 km/h (0 Bft) O-NO 57 0 min 0,000 mm 0,0 UV-I 0 W/m 6,8 C 8,0 C 0,0 km/h (0 Bft) 0,00 %
25.06.2015 02:30 8,0 C 92 % 1024,6 hPa 0,0 l/m 0,0 km/h (0 Bft) N-NO 14 0 min 0,000 mm 0,0 UV-I 0 W/m 6,8 C 8,0 C 0,0 km/h (0 Bft) 0,00 %
25.06.2015 02:35 8,0 C 93 % 1024,5 hPa 0,0 l/m 0,0 km/h (0 Bft) O-NO 64 0 min 0,000 mm 0,0 UV-I 0 W/m 6,9 C 8,0 C 0,0 km/h (0 Bft) 0,00 %
25.06.2015 02:40 8,0 C 93 % 1024,6 hPa 0,0 l/m 0,0 km/h (0 Bft) NO 45 0 min 0,000 mm 0,0 UV-I 0 W/m 6,9 C 8,0 C 0,0 km/h (0 Bft) 0,00 %
25.06.2015 02:45 8,0 C 93 % 1024,5 hPa 0,0 l/m 0,0 km/h (0 Bft) NO 53 0 min 0,000 mm 0,0 UV-I 0 W/m 6,9 C 8,0 C 0,0 km/h (0 Bft) 0,00 %
25.06.2015 02:50 8,0 C 93 % 1024,5 hPa 0,0 l/m 0,0 km/h (0 Bft) NO 54 0 min 0,000 mm 0,0 UV-I 0 W/m 6,9 C 8,0 C 0,0 km/h (0 Bft) 0,00 %
25.06.2015 02:55 8,1 C 93 % 1024,3 hPa 0,0 l/m 0,0 km/h (0 Bft) NO 43 0 min 0,000 mm 0,0 UV-I 0 W/m 7,0 C 8,1 C 0,0 km/h (0 Bft) 0,00 %
25.06.2015 03:00 8,1 C 93 % 1024,4 hPa 0,0 l/m 0,0 km/h (0 Bft) O-NO 57 0 min 0,000 mm 0,0 UV-I 0 W/m 7,0 C 8,1 C 0,0 km/h (0 Bft) 0,00 %
25.06.2015 03:05 8,0 C 93 % 1024,5 hPa 0,0 l/m 0,0 km/h (0 Bft) O 85 0 min 0,000 mm 0,0 UV-I 0 W/m 6,9 C 8,0 C 0,0 km/h (0 Bft) 0,00 %
25.06.2015 03:10 8,0 C 95 % 1024,4 hPa 0,0 l/m 0,0 km/h (0 Bft) NO 49 0 min 0,000 mm 0,0 UV-I 0 W/m 7,2 C 8,0 C 0,0 km/h (0 Bft) 0,00 %
25.06.2015 03:15 7,9 C 94 % 1024,5 hPa 0,0 l/m 0,0 km/h (0 Bft) NO 47 0 min 0,000 mm 0,0 UV-I 0 W/m 7,0 C 7,9 C 0,0 km/h (0 Bft) 0,00 %
25.06.2015 03:20 7,8 C 94 % 1024,5 hPa 0,0 l/m 0,0 km/h (0 Bft) NO 51 0 min 0,000 mm 0,0 UV-I 0 W/m 6,9 C 7,8 C 0,0 km/h (0 Bft) 0,00 %
25.06.2015 03:25 7,6 C 94 % 1024,6 hPa 0,0 l/m 0,0 km/h (0 Bft) NO 50 0 min 0,000 mm 0,0 UV-I 0 W/m 6,7 C 7,6 C 0,0 km/h (0 Bft) 0,00 %
25.06.2015 03:30 7,4 C 94 % 1024,5 hPa 0,0 l/m 0,0 km/h (0 Bft) NO 49 0 min 0,000 mm 0,0 UV-I 0 W/m 6,5 C 7,4 C 0,0 km/h (0 Bft) 0,00 %
25.06.2015 03:35 7,4 C 94 % 1024,6 hPa 0,0 l/m 0,0 km/h (0 Bft) NO 54 0 min 0,000 mm 0,0 UV-I 0 W/m 6,5 C 7,4 C 0,0 km/h (0 Bft) 0,00 %
25.06.2015 03:40 7,4 C 94 % 1024,6 hPa 0,0 l/m 0,0 km/h (0 Bft) NO 55 0 min 0,000 mm 0,0 UV-I 0 W/m 6,5 C 7,4 C 0,0 km/h (0 Bft) 0,00 %
25.06.2015 03:45 7,3 C 94 % 1024,8 hPa 0,0 l/m 0,0 km/h (0 Bft) O-NO 63 0 min 0,000 mm 0,0 UV-I 0 W/m 6,4 C 7,3 C 0,0 km/h (0 Bft) 0,00 %
25.06.2015 03:50 7,2 C 94 % 1024,8 hPa 0,0 l/m 0,0 km/h (0 Bft) O-NO 57 0 min 0,000 mm 0,0 UV-I 0 W/m 6,3 C 7,2 C 0,0 km/h (0 Bft) 0,00 %
25.06.2015 03:55 7,0 C 94 % 1024,8 hPa 0,0 l/m 0,0 km/h (0 Bft) NO 50 0 min 0,000 mm 0,0 UV-I 0 W/m 6,1 C 7,0 C 0,0 km/h (0 Bft) 0,00 %
25.06.2015 04:00 7,1 C 95 % 1024,7 hPa 0,0 l/m 0,0 km/h (0 Bft) NO 54 0 min 0,000 mm 0,0 UV-I 0 W/m 6,4 C 7,1 C 0,0 km/h (0 Bft) 0,00 %
25.06.2015 04:05 7,1 C 94 % 1024,7 hPa 0,0 l/m 0,0 km/h (0 Bft) NO 51 0 min 0,000 mm 0,0 UV-I 0 W/m 6,2 C 7,1 C 0,0 km/h (0 Bft) 0,00 %
25.06.2015 04:10 7,1 C 94 % 1024,8 hPa 0,0 l/m 0,0 km/h (0 Bft) NO 56 0 min 0,000 mm 0,0 UV-I 0 W/m 6,2 C 7,1 C 0,0 km/h (0 Bft) 0,00 %
25.06.2015 04:15 7,0 C 96 % 1024,8 hPa 0,0 l/m 0,0 km/h (0 Bft) NO 46 0 min 0,000 mm 0,0 UV-I 0 W/m 6,4 C 7,0 C 0,0 km/h (0 Bft) 0,00 %
25.06.2015 04:20 6,9 C 96 % 1024,8 hPa 0,0 l/m 0,0 km/h (0 Bft) NO 51 0 min 0,000 mm 0,0 UV-I 0 W/m 6,3 C 6,9 C 0,0 km/h (0 Bft) 0,00 %
25.06.2015 04:25 6,8 C 95 % 1024,7 hPa 0,0 l/m 0,0 km/h (0 Bft) NO 52 0 min 0,000 mm 0,0 UV-I 0 W/m 6,1 C 6,8 C 0,0 km/h (0 Bft) 0,00 %
25.06.2015 04:30 6,7 C 95 % 1024,7 hPa 0,0 l/m 0,0 km/h (0 Bft) O-NO 61 0 min 0,000 mm 0,0 UV-I 0 W/m 6,0 C 6,7 C 0,0 km/h (0 Bft) 0,00 %
25.06.2015 04:35 6,6 C 95 % 1024,8 hPa 0,0 l/m 0,0 km/h (0 Bft) O-NO 59 0 min 0,000 mm 0,0 UV-I 0 W/m 5,9 C 6,6 C 0,0 km/h (0 Bft) 0,00 %
25.06.2015 04:40 6,5 C 95 % 1024,9 hPa 0,0 l/m 0,0 km/h (0 Bft) NO 52 0 min 0,000 mm 0,0 UV-I 0 W/m 5,8 C 6,5 C 0,0 km/h (0 Bft) 0,00 %
25.06.2015 04:45 6,4 C 95 % 1024,7 hPa 0,0 l/m 0,0 km/h (0 Bft) NO 56 0 min 0,000 mm 0,0 UV-I 0 W/m 5,7 C 6,4 C 0,0 km/h (0 Bft) 0,00 %
25.06.2015 04:50 6,4 C 95 % 1024,8 hPa 0,0 l/m 0,0 km/h (0 Bft) O-NO 59 0 min 0,000 mm 0,0 UV-I 0 W/m 5,7 C 6,4 C 0,0 km/h (0 Bft) 0,00 %
25.06.2015 04:55 6,3 C 95 % 1024,9 hPa 0,0 l/m 0,0 km/h (0 Bft) NO 48 0 min 0,000 mm 0,0 UV-I 0 W/m 5,6 C 6,3 C 0,0 km/h (0 Bft) 0,00 %
25.06.2015 05:00 6,3 C 95 % 1025,0 hPa 0,0 l/m 0,0 km/h (0 Bft) NO 52 0 min 0,000 mm 0,0 UV-I 0 W/m 5,6 C 6,3 C 0,0 km/h (0 Bft) 0,00 %
25.06.2015 05:05 6,3 C 95 % 1024,9 hPa 0,0 l/m 0,0 km/h (0 Bft) O-NO 61 0 min 0,000 mm 0,0 UV-I 0 W/m 5,6 C 6,3 C 0,0 km/h (0 Bft) 0,00 %
25.06.2015 05:10 6,3 C 95 % 1025,1 hPa 0,0 l/m 0,0 km/h (0 Bft) O-NO 62 0 min 0,000 mm 0,0 UV-I 3 W/m 5,6 C 6,3 C 0,0 km/h (0 Bft) 0,00 %
25.06.2015 05:15 6,2 C 95 % 1025,1 hPa 0,0 l/m 0,0 km/h (0 Bft) O-NO 62 0 min 0,000 mm 0,0 UV-I 7 W/m 5,5 C 6,2 C 0,0 km/h (0 Bft) 0,00 %
25.06.2015 05:20 6,2 C 95 % 1025,0 hPa 0,0 l/m 0,0 km/h (0 Bft) O-NO 62 5 min 0,000 mm 0,0 UV-I 12 W/m 5,5 C 6,2 C 0,0 km/h (0 Bft) 0,00 %
25.06.2015 05:25 6,3 C 96 % 1025,0 hPa 0,0 l/m 0,0 km/h (0 Bft) O-NO 62 5 min 0,000 mm 0,0 UV-I 20 W/m 5,7 C 6,3 C 0,0 km/h (0 Bft) 0,00 %
25.06.2015 05:30 6,3 C 96 % 1025,1 hPa 0,0 l/m 0,0 km/h (0 Bft) NO 53 5 min 0,000 mm 0,0 UV-I 26 W/m 5,7 C 6,3 C 0,0 km/h (0 Bft) 0,00 %
25.06.2015 05:35 6,4 C 96 % 1025,0 hPa 0,0 l/m 0,0 km/h (0 Bft) O 82 5 min 0,000 mm 0,0 UV-I 32 W/m 5,8 C 6,4 C 0,0 km/h (0 Bft) 0,00 %
25.06.2015 05:40 6,6 C 96 % 1025,1 hPa 0,0 l/m 0,0 km/h (0 Bft) NO 51 5 min 0,000 mm 0,0 UV-I 48 W/m 6,0 C 6,6 C 0,0 km/h (0 Bft) 0,00 %
25.06.2015 05:45 6,7 C 95 % 1024,9 hPa 0,0 l/m 0,0 km/h (0 Bft) N-NO 29 5 min 0,000 mm 0,0 UV-I 105 W/m 6,0 C 6,7 C 0,0 km/h (0 Bft) 0,00 %
25.06.2015 05:50 7,0 C 96 % 1024,9 hPa 0,0 l/m 0,0 km/h (0 Bft) NO 48 5 min 0,000 mm 0,0 UV-I 129 W/m 6,4 C 7,0 C 0,0 km/h (0 Bft) 0,00 %
25.06.2015 05:55 7,9 C 94 % 1024,8 hPa 0,0 l/m 0,0 km/h (0 Bft) NO 52 5 min 0,000 mm 0,0 UV-I 147 W/m 7,0 C 7,9 C 0,0 km/h (0 Bft) 0,00 %
25.06.2015 06:00 9,0 C 94 % 1024,7 hPa 0,0 l/m 0,0 km/h (0 Bft) NO 50 5 min 0,000 mm 0,0 UV-I 168 W/m 8,1 C 9,0 C 0,0 km/h (0 Bft) 0,00 %
25.06.2015 06:05 10,1 C 93 % 1024,7 hPa 0,0 l/m 0,0 km/h (0 Bft) NO 55 5 min 0,000 mm 0,0 UV-I 187 W/m 9,0 C 10,1 C 0,0 km/h (0 Bft) 0,00 %
25.06.2015 06:10 11,1 C 93 % 1024,4 hPa 0,0 l/m 0,0 km/h (0 Bft) NO 48 5 min 0,000 mm 0,0 UV-I 208 W/m 10,0 C 11,1 C 0,0 km/h (0 Bft) 0,00 %
25.06.2015 06:15 11,9 C 93 % 1024,1 hPa 0,0 l/m 0,0 km/h (0 Bft) NO 47 5 min 0,000 mm 0,0 UV-I 228 W/m 10,8 C 11,9 C 0,0 km/h (0 Bft) 0,00 %
25.06.2015 06:20 12,7 C 91 % 1024,2 hPa 0,0 l/m 0,0 km/h (0 Bft) NO 46 5 min 0,000 mm 0,0 UV-I 246 W/m 11,3 C 12,7 C 0,0 km/h (0 Bft) 0,00 %
25.06.2015 06:25 13,4 C 88 % 1023,7 hPa 0,0 l/m 0,0 km/h (0 Bft) N-NO 31 5 min 0,000 mm 1,0 UV-I 264 W/m 11,5 C 13,4 C 0,0 km/h (0 Bft) 0,00 %
25.06.2015 06:30 13,9 C 82 % 1023,9 hPa 0,0 l/m 0,0 km/h (0 Bft) NO 49 5 min 0,000 mm 1,0 UV-I 282 W/m 10,9 C 13,9 C 0,0 km/h (0 Bft) 0,00 %
25.06.2015 06:35 14,3 C 78 % 1023,9 hPa 0,0 l/m 0,0 km/h (0 Bft) NO 51 5 min 0,000 mm 1,0 UV-I 301 W/m 10,5 C 14,3 C 0,0 km/h (0 Bft) 0,00 %
25.06.2015 06:40 14,8 C 72 % 1023,5 hPa 0,0 l/m 0,0 km/h (0 Bft) NO 45 5 min 0,000 mm 1,0 UV-I 318 W/m 9,8 C 14,8 C 0,0 km/h (0 Bft) 0,00 %
25.06.2015 06:45 15,3 C 68 % 1023,7 hPa 0,0 l/m 0,0 km/h (0 Bft) NO 36 5 min 0,000 mm 1,0 UV-I 333 W/m 9,4 C 15,3 C 0,0 km/h (0 Bft) 0,00 %
25.06.2015 06:50 15,7 C 65 % 1023,6 hPa 0,0 l/m 0,0 km/h (0 Bft) NO 45 5 min 0,000 mm 1,0 UV-I 350 W/m 9,1 C 15,7 C 0,0 km/h (0 Bft) 0,00 %
25.06.2015 06:55 16,2 C 62 % 1023,5 hPa 0,0 l/m 0,0 km/h (0 Bft) NO 41 5 min 0,000 mm 1,0 UV-I 364 W/m 8,9 C 16,2 C 0,0 km/h (0 Bft) 0,00 %
25.06.2015 07:00 16,6 C 62 % 1023,6 hPa 0,0 l/m 0,0 km/h (0 Bft) NO 43 5 min 0,000 mm 1,0 UV-I 375 W/m 9,3 C 16,6 C 0,0 km/h (0 Bft) 0,00 %
25.06.2015 07:05 17,0 C 59 % 1023,5 hPa 0,0 l/m 0,0 km/h (0 Bft) O-NO 58 5 min 0,000 mm 1,0 UV-I 385 W/m 8,9 C 17,0 C 0,0 km/h (0 Bft) 0,00 %
25.06.2015 07:10 17,0 C 60 % 1023,5 hPa 0,0 l/m 0,0 km/h (0 Bft) N-NO 32 5 min 0,000 mm 1,0 UV-I 395 W/m 9,2 C 17,0 C 0,0 km/h (0 Bft) 0,00 %
25.06.2015 07:15 16,7 C 61 % 1023,7 hPa 0,0 l/m 0,0 km/h (0 Bft) NO 39 5 min 0,000 mm 1,0 UV-I 404 W/m 9,1 C 16,7 C 0,0 km/h (0 Bft) 0,00 %
25.06.2015 07:20 16,7 C 62 % 1023,4 hPa 0,0 l/m 0,0 km/h (0 Bft) NO 43 5 min 0,000 mm 1,0 UV-I 412 W/m 9,4 C 16,7 C 0,0 km/h (0 Bft) 0,00 %
25.06.2015 07:25 17,0 C 61 % 1023,5 hPa 0,0 l/m 0,0 km/h (0 Bft) O-NO 72 5 min 0,000 mm 1,0 UV-I 415 W/m 9,4 C 17,0 C 0,0 km/h (0 Bft) 0,00 %
25.06.2015 07:30 17,2 C 62 % 1023,4 hPa 0,0 l/m 0,0 km/h (0 Bft) NO 53 5 min 0,000 mm 1,0 UV-I 420 W/m 9,9 C 17,2 C 0,0 km/h (0 Bft) 0,00 %
25.06.2015 07:35 17,2 C 62 % 1023,4 hPa 0,0 l/m 0,4 km/h (0 Bft) N 353 5 min 0,000 mm 1,0 UV-I 420 W/m 9,9 C 17,2 C 4,0 km/h (1 Bft) 0,00 %
25.06.2015 07:40 16,9 C 63 % 1023,4 hPa 0,0 l/m 0,0 km/h (0 Bft) NO 55 5 min 0,000 mm 1,0 UV-I 428 W/m 9,8 C 16,9 C 0,0 km/h (0 Bft) 0,00 %
25.06.2015 07:45 16,6 C 62 % 1023,6 hPa 0,0 l/m 0,0 km/h (0 Bft) O-NO 58 5 min 0,000 mm 1,0 UV-I 435 W/m 9,3 C 16,6 C 0,0 km/h (0 Bft) 0,00 %
25.06.2015 07:50 17,0 C 61 % 1023,5 hPa 0,0 l/m 0,0 km/h (0 Bft) NO 37 5 min 0,000 mm 1,0 UV-I 443 W/m 9,4 C 17,0 C 0,0 km/h (0 Bft) 0,00 %
25.06.2015 07:55 17,5 C 60 % 1023,1 hPa 0,0 l/m 0,0 km/h (0 Bft) N 354 5 min 0,000 mm 1,0 UV-I 445 W/m 9,6 C 17,5 C 0,0 km/h (0 Bft) 0,00 %
25.06.2015 08:00 17,5 C 62 % 1023,2 hPa 0,0 l/m 0,0 km/h (0 Bft) O-NO 73 5 min 0,000 mm 1,0 UV-I 452 W/m 10,1 C 17,5 C 0,0 km/h (0 Bft) 0,00 %
25.06.2015 08:05 17,4 C 62 % 1023,3 hPa 0,0 l/m 0,0 km/h (0 Bft) O 81 5 min 0,000 mm 1,0 UV-I 419 W/m 10,0 C 17,4 C 0,0 km/h (0 Bft) 0,00 %
25.06.2015 08:10 17,2 C 62 % 1023,3 hPa 0,0 l/m 0,0 km/h (0 Bft) NO 44 5 min 0,000 mm 1,0 UV-I 462 W/m 9,9 C 17,2 C 0,0 km/h (0 Bft) 0,00 %
25.06.2015 08:15 17,1 C 62 % 1023,4 hPa 0,0 l/m 0,7 km/h (0 Bft) O 94 5 min 0,000 mm 2,0 UV-I 464 W/m 9,8 C 17,1 C 4,0 km/h (1 Bft) 0,00 %
25.06.2015 08:20 17,1 C 61 % 1023,5 hPa 0,0 l/m 1,4 km/h (1 Bft) O 98 5 min 0,000 mm 2,0 UV-I 470 W/m 9,5 C 17,1 C 4,0 km/h (1 Bft) 0,00 %
25.06.2015 08:25 17,4 C 62 % 1023,2 hPa 0,0 l/m 0,0 km/h (0 Bft) O-NO 68 5 min 0,000 mm 2,0 UV-I 475 W/m 10,0 C 17,4 C 0,0 km/h (0 Bft) 0,00 %
25.06.2015 08:30 17,6 C 62 % 1023,4 hPa 0,0 l/m 0,0 km/h (0 Bft) O-NO 70 5 min 0,000 mm 2,0 UV-I 480 W/m 10,2 C 17,6 C 0,0 km/h (0 Bft) 0,00 %
25.06.2015 08:35 17,5 C 62 % 1023,4 hPa 0,0 l/m 0,0 km/h (0 Bft) NO 51 5 min 0,000 mm 2,0 UV-I 465 W/m 10,1 C 17,5 C 0,0 km/h (0 Bft) 0,00 %
25.06.2015 08:40 17,5 C 60 % 1023,4 hPa 0,0 l/m 2,2 km/h (1 Bft) O-NO 75 5 min 0,000 mm 2,0 UV-I 491 W/m 9,6 C 17,5 C 4,0 km/h (1 Bft) 0,00 %
25.06.2015 08:45 17,4 C 62 % 1023,2 hPa 0,0 l/m 0,0 km/h (0 Bft) O-NO 57 5 min 0,000 mm 2,0 UV-I 500 W/m 10,0 C 17,4 C 0,0 km/h (0 Bft) 0,00 %
25.06.2015 08:50 17,2 C 62 % 1023,4 hPa 0,0 l/m 0,0 km/h (0 Bft) NO 55 5 min 0,000 mm 2,0 UV-I 504 W/m 9,9 C 17,2 C 0,0 km/h (0 Bft) 0,00 %
25.06.2015 08:55 17,1 C 62 % 1023,4 hPa 0,0 l/m 0,7 km/h (0 Bft) O 80 5 min 0,000 mm 2,0 UV-I 492 W/m 9,8 C 17,1 C 4,0 km/h (1 Bft) 0,00 %
25.06.2015 09:00 17,1 C 62 % 1023,5 hPa 0,0 l/m 2,9 km/h (1 Bft) O-NO 66 5 min 0,000 mm 2,0 UV-I 519 W/m 9,8 C 17,1 C 4,0 km/h (1 Bft) 0,00 %
25.06.2015 09:05 17,4 C 62 % 1023,2 hPa 0,0 l/m 1,8 km/h (1 Bft) O-NO 67 5 min 0,000 mm 2,0 UV-I 526 W/m 10,0 C 17,4 C 4,0 km/h (1 Bft) 0,00 %
25.06.2015 09:10 17,5 C 62 % 1023,4 hPa 0,0 l/m 0,4 km/h (0 Bft) O-NO 59 5 min 0,000 mm 2,0 UV-I 535 W/m 10,1 C 17,5 C 4,0 km/h (1 Bft) 0,00 %
25.06.2015 09:15 17,4 C 62 % 1023,3 hPa 0,0 l/m 1,8 km/h (1 Bft) NO 40 5 min 0,000 mm 2,0 UV-I 543 W/m 10,0 C 17,4 C 4,0 km/h (1 Bft) 0,00 %
25.06.2015 09:20 17,5 C 62 % 1023,2 hPa 0,0 l/m 0,0 km/h (0 Bft) O-NO 57 5 min 0,000 mm 2,0 UV-I 553 W/m 10,1 C 17,5 C 0,0 km/h (0 Bft) 0,00 %
25.06.2015 09:25 17,7 C 62 % 1023,1 hPa 0,0 l/m 0,0 km/h (0 Bft) NO 51 5 min 0,000 mm 2,0 UV-I 565 W/m 10,3 C 17,7 C 0,0 km/h (0 Bft) 0,00 %
25.06.2015 09:30 18,0 C 58 % 1023,1 hPa 0,0 l/m 0,0 km/h (0 Bft) NO 52 5 min 0,000 mm 2,0 UV-I 560 W/m 9,6 C 18,0 C 0,0 km/h (0 Bft) 0,00 %
25.06.2015 09:35 18,4 C 59 % 1023,2 hPa 0,0 l/m 2,2 km/h (1 Bft) O 99 5 min 0,000 mm 2,0 UV-I 584 W/m 10,2 C 18,4 C 4,0 km/h (1 Bft) 0,00 %
25.06.2015 09:40 18,7 C 58 % 1023,0 hPa 0,0 l/m 0,0 km/h (0 Bft) O-NO 57 5 min 0,000 mm 3,0 UV-I 594 W/m 10,3 C 18,7 C 0,0 km/h (0 Bft) 0,00 %
25.06.2015 09:45 18,7 C 56 % 1022,9 hPa 0,0 l/m 2,2 km/h (1 Bft) W-NW 303 5 min 0,000 mm 3,0 UV-I 602 W/m 9,7 C 18,7 C 4,0 km/h (1 Bft) 0,00 %
25.06.2015 09:50 18,3 C 58 % 1022,9 hPa 0,0 l/m 0,0 km/h (0 Bft) N 354 5 min 0,000 mm 3,0 UV-I 617 W/m 9,9 C 18,3 C 0,0 km/h (0 Bft) 0,00 %
25.06.2015 09:55 18,3 C 56 % 1023,0 hPa 0,0 l/m 0,0 km/h (0 Bft) O 93 5 min 0,000 mm 3,0 UV-I 629 W/m 9,4 C 18,3 C 0,0 km/h (0 Bft) 0,00 %
25.06.2015 10:00 18,6 C 59 % 1022,9 hPa 0,0 l/m 0,0 km/h (0 Bft) N 354 5 min 0,000 mm 3,0 UV-I 586 W/m 10,4 C 18,6 C 0,0 km/h (0 Bft) 0,00 %
25.06.2015 10:05 18,8 C 58 % 1022,9 hPa 0,0 l/m 0,0 km/h (0 Bft) N-NO 21 5 min 0,000 mm 3,0 UV-I 647 W/m 10,4 C 18,8 C 0,0 km/h (0 Bft) 0,00 %
25.06.2015 10:10 19,0 C 55 % 1022,7 hPa 0,0 l/m 0,0 km/h (0 Bft) O-NO 74 5 min 0,000 mm 3,0 UV-I 663 W/m 9,8 C 19,0 C 0,0 km/h (0 Bft) 0,00 %
25.06.2015 10:15 19,2 C 55 % 1022,8 hPa 0,0 l/m 2,9 km/h (1 Bft) O 94 5 min 0,000 mm 3,0 UV-I 671 W/m 9,9 C 19,2 C 4,0 km/h (1 Bft) 0,00 %
25.06.2015 10:20 19,3 C 54 % 1022,6 hPa 0,0 l/m 0,4 km/h (0 Bft) N 352 5 min 0,000 mm 3,0 UV-I 674 W/m 9,8 C 19,3 C 4,0 km/h (1 Bft) 0,00 %
25.06.2015 10:25 19,2 C 55 % 1022,8 hPa 0,0 l/m 1,4 km/h (1 Bft) NO 50 5 min 0,000 mm 3,0 UV-I 689 W/m 9,9 C 19,2 C 4,0 km/h (1 Bft) 0,00 %
25.06.2015 10:30 19,2 C 54 % 1022,8 hPa 0,0 l/m 1,4 km/h (1 Bft) O 99 5 min 0,000 mm 4,0 UV-I 701 W/m 9,7 C 19,2 C 4,0 km/h (1 Bft) 0,00 %
25.06.2015 10:35 19,4 C 53 % 1022,5 hPa 0,0 l/m 0,4 km/h (0 Bft) O-NO 66 5 min 0,000 mm 4,0 UV-I 695 W/m 9,6 C 19,4 C 4,0 km/h (1 Bft) 0,00 %
25.06.2015 10:40 19,7 C 53 % 1022,4 hPa 0,0 l/m 2,9 km/h (1 Bft) O-NO 64 5 min 0,000 mm 4,0 UV-I 715 W/m 9,8 C 19,7 C 4,0 km/h (1 Bft) 0,00 %
25.06.2015 10:45 19,8 C 56 % 1022,5 hPa 0,0 l/m 0,0 km/h (0 Bft) O-NO 66 5 min 0,000 mm 4,0 UV-I 705 W/m 10,8 C 19,8 C 0,0 km/h (0 Bft) 0,00 %
25.06.2015 10:50 20,0 C 53 % 1022,4 hPa 0,0 l/m 3,2 km/h (1 Bft) O-SO 116 5 min 0,000 mm 4,0 UV-I 670 W/m 10,1 C 20,0 C 4,0 km/h (1 Bft) 0,00 %
25.06.2015 10:55 20,3 C 51 % 1022,4 hPa 0,0 l/m 1,4 km/h (1 Bft) O-SO 121 5 min 0,000 mm 4,0 UV-I 705 W/m 9,8 C 20,3 C 4,0 km/h (1 Bft) 0,00 %
25.06.2015 11:00 20,6 C 51 % 1022,3 hPa 0,0 l/m 1,8 km/h (1 Bft) O 96 5 min 0,000 mm 4,0 UV-I 777 W/m 10,1 C 20,6 C 4,0 km/h (1 Bft) 0,00 %
25.06.2015 11:05 20,8 C 49 % 1022,3 hPa 0,0 l/m 2,2 km/h (1 Bft) O-SO 115 5 min 0,000 mm 4,0 UV-I 829 W/m 9,7 C 20,8 C 4,0 km/h (1 Bft) 0,00 %
25.06.2015 11:10 20,7 C 49 % 1022,2 hPa 0,0 l/m 2,2 km/h (1 Bft) O 80 5 min 0,000 mm 4,0 UV-I 805 W/m 9,6 C 20,7 C 4,0 km/h (1 Bft) 0,00 %
25.06.2015 11:15 20,5 C 46 % 1022,2 hPa 0,0 l/m 0,0 km/h (0 Bft) O 96 5 min 0,000 mm 5,0 UV-I 795 W/m 8,5 C 20,5 C 0,0 km/h (0 Bft) 0,00 %
25.06.2015 11:20 20,5 C 49 % 1022,2 hPa 0,0 l/m 1,8 km/h (1 Bft) O 98 5 min 0,000 mm 5,0 UV-I 809 W/m 9,4 C 20,5 C 4,0 km/h (1 Bft) 0,00 %
25.06.2015 11:25 21,0 C 46 % 1022,1 hPa 0,0 l/m 1,4 km/h (1 Bft) NO 53 5 min 0,000 mm 5,0 UV-I 792 W/m 8,9 C 21,0 C 4,0 km/h (1 Bft) 0,00 %
25.06.2015 11:30 21,5 C 45 % 1022,0 hPa 0,0 l/m 2,2 km/h (1 Bft) O 85 5 min 0,000 mm 5,0 UV-I 802 W/m 9,1 C 21,5 C 4,0 km/h (1 Bft) 0,00 %
25.06.2015 11:35 21,5 C 47 % 1022,1 hPa 0,0 l/m 2,2 km/h (1 Bft) O-NO 59 5 min 0,000 mm 5,0 UV-I 602 W/m 9,7 C 21,5 C 4,0 km/h (1 Bft) 0,00 %
25.06.2015 11:40 21,1 C 45 % 1022,2 hPa 0,0 l/m 0,0 km/h (0 Bft) N-NO 31 5 min 0,000 mm 4,0 UV-I 657 W/m 8,7 C 21,1 C 0,0 km/h (0 Bft) 0,00 %
25.06.2015 11:45 20,6 C 45 % 1022,2 hPa 0,0 l/m 0,0 km/h (0 Bft) N 352 5 min 0,000 mm 4,0 UV-I 765 W/m 8,2 C 20,6 C 0,0 km/h (0 Bft) 0,00 %
25.06.2015 11:50 20,5 C 47 % 1022,3 hPa 0,0 l/m 0,4 km/h (0 Bft) NO 38 5 min 0,000 mm 5,0 UV-I 763 W/m 8,8 C 20,5 C 4,0 km/h (1 Bft) 0,00 %
25.06.2015 11:55 20,8 C 40 % 1022,3 hPa 0,0 l/m 0,0 km/h (0 Bft) N-NO 17 5 min 0,000 mm 5,0 UV-I 826 W/m 6,7 C 20,8 C 0,0 km/h (0 Bft) 0,00 %
25.06.2015 12:00 21,2 C 45 % 1022,0 hPa 0,0 l/m 0,0 km/h (0 Bft) O-NO 67 5 min 0,000 mm 5,0 UV-I 820 W/m 8,8 C 21,2 C 0,0 km/h (0 Bft) 0,00 %
25.06.2015 12:05 21,8 C 44 % 1021,9 hPa 0,0 l/m 8,3 km/h (2 Bft) O-NO 65 5 min 0,000 mm 5,0 UV-I 826 W/m 9,0 C 21,1 C 11,9 km/h (2 Bft) 0,00 %
25.06.2015 12:10 21,8 C 46 % 1021,9 hPa 0,0 l/m 0,4 km/h (0 Bft) N 352 5 min 0,000 mm 5,0 UV-I 825 W/m 9,7 C 21,8 C 4,0 km/h (1 Bft) 0,00 %
25.06.2015 12:15 21,4 C 44 % 1022,0 hPa 0,0 l/m 0,4 km/h (0 Bft) NO 36 5 min 0,000 mm 5,0 UV-I 831 W/m 8,6 C 21,4 C 4,0 km/h (1 Bft) 0,00 %
25.06.2015 12:20 21,1 C 46 % 1022,2 hPa 0,0 l/m 0,7 km/h (0 Bft) N 351 5 min 0,000 mm 5,0 UV-I 829 W/m 9,0 C 21,1 C 4,0 km/h (1 Bft) 0,00 %
25.06.2015 12:25 21,1 C 43 % 1021,9 hPa 0,0 l/m 0,0 km/h (0 Bft) NO 39 5 min 0,000 mm 6,0 UV-I 830 W/m 8,0 C 21,1 C 0,0 km/h (0 Bft) 0,00 %
25.06.2015 12:30 21,1 C 41 % 1021,9 hPa 0,0 l/m 1,8 km/h (1 Bft) NW 321 5 min 0,000 mm 6,0 UV-I 842 W/m 7,3 C 21,1 C 4,0 km/h (1 Bft) 0,00 %
25.06.2015 12:35 21,0 C 46 % 1022,0 hPa 0,0 l/m 0,4 km/h (0 Bft) NO 50 5 min 0,000 mm 6,0 UV-I 850 W/m 8,9 C 21,0 C 4,0 km/h (1 Bft) 0,00 %
25.06.2015 12:40 21,1 C 40 % 1021,9 hPa 0,0 l/m 4,7 km/h (1 Bft) N 350 5 min 0,000 mm 6,0 UV-I 854 W/m 7,0 C 21,1 C 7,9 km/h (2 Bft) 0,00 %
25.06.2015 12:45 21,3 C 42 % 1021,8 hPa 0,0 l/m 4,0 km/h (1 Bft) W-SW 256 5 min 0,000 mm 6,0 UV-I 872 W/m 7,9 C 21,3 C 7,9 km/h (2 Bft) 0,00 %
25.06.2015 12:50 21,4 C 38 % 1021,7 hPa 0,0 l/m 4,0 km/h (1 Bft) W-NW 282 5 min 0,000 mm 6,0 UV-I 890 W/m 6,5 C 21,4 C 7,9 km/h (2 Bft) 0,00 %
25.06.2015 12:55 21,9 C 40 % 1021,4 hPa 0,0 l/m 4,0 km/h (1 Bft) W-NW 298 5 min 0,000 mm 6,0 UV-I 838 W/m 7,7 C 21,9 C 4,0 km/h (1 Bft) 0,00 %
25.06.2015 13:00 22,6 C 37 % 1021,6 hPa 0,0 l/m 0,0 km/h (0 Bft) N 2 5 min 0,000 mm 6,0 UV-I 879 W/m 7,2 C 22,6 C 0,0 km/h (0 Bft) 0,00 %
25.06.2015 13:05 22,9 C 41 % 1021,5 hPa 0,0 l/m 0,0 km/h (0 Bft) O-NO 59 5 min 0,000 mm 6,0 UV-I 921 W/m 8,9 C 22,9 C 0,0 km/h (0 Bft) 0,00 %
25.06.2015 13:10 23,2 C 36 % 1021,3 hPa 0,0 l/m 0,4 km/h (0 Bft) O 87 5 min 0,000 mm 6,0 UV-I 806 W/m 7,3 C 23,2 C 4,0 km/h (1 Bft) 0,00 %
25.06.2015 13:15 23,2 C 37 % 1021,3 hPa 0,0 l/m 0,4 km/h (0 Bft) N 6 5 min 0,000 mm 5,0 UV-I 748 W/m 7,7 C 23,2 C 4,0 km/h (1 Bft) 0,00 %
25.06.2015 13:20 22,9 C 31 % 1021,4 hPa 0,0 l/m 6,5 km/h (2 Bft) W-SW 256 5 min 0,000 mm 5,0 UV-I 746 W/m 4,9 C 22,9 C 7,9 km/h (2 Bft) 0,00 %
25.06.2015 13:25 22,9 C 32 % 1021,4 hPa 0,0 l/m 4,3 km/h (1 Bft) N-NW 330 5 min 0,000 mm 5,0 UV-I 912 W/m 5,3 C 22,9 C 7,9 km/h (2 Bft) 0,00 %
25.06.2015 13:30 22,8 C 32 % 1021,5 hPa 0,0 l/m 0,0 km/h (0 Bft) O-NO 71 5 min 0,000 mm 6,0 UV-I 898 W/m 5,2 C 22,8 C 0,0 km/h (0 Bft) 0,00 %
25.06.2015 13:35 22,5 C 33 % 1021,4 hPa 0,0 l/m 0,0 km/h (0 Bft) NO 47 5 min 0,000 mm 6,0 UV-I 887 W/m 5,4 C 22,5 C 0,0 km/h (0 Bft) 0,00 %
25.06.2015 13:40 22,7 C 31 % 1021,5 hPa 0,0 l/m 0,0 km/h (0 Bft) S-SO 167 5 min 0,000 mm 6,0 UV-I 922 W/m 4,7 C 22,7 C 0,0 km/h (0 Bft) 0,00 %
25.06.2015 13:45 23,1 C 31 % 1021,3 hPa 0,0 l/m 0,0 km/h (0 Bft) N-NO 24 5 min 0,000 mm 6,0 UV-I 903 W/m 5,0 C 23,1 C 0,0 km/h (0 Bft) 0,00 %
25.06.2015 13:50 23,2 C 29 % 1021,3 hPa 0,0 l/m 0,4 km/h (0 Bft) N-NW 330 5 min 0,000 mm 6,0 UV-I 927 W/m 4,2 C 23,2 C 4,0 km/h (1 Bft) 0,00 %
25.06.2015 13:55 23,1 C 28 % 1021,3 hPa 0,0 l/m 0,0 km/h (0 Bft) O-NO 75 5 min 0,000 mm 6,0 UV-I 916 W/m 3,6 C 23,1 C 0,0 km/h (0 Bft) 0,00 %
25.06.2015 14:00 23,2 C 33 % 1021,4 hPa 0,0 l/m 3,2 km/h (1 Bft) W-NW 300 5 min 0,000 mm 5,0 UV-I 917 W/m 6,0 C 23,2 C 4,0 km/h (1 Bft) 0,00 %
25.06.2015 14:05 23,3 C 32 % 1021,0 hPa 0,0 l/m 0,0 km/h (0 Bft) O-NO 62 5 min 0,000 mm 6,0 UV-I 924 W/m 5,7 C 23,3 C 0,0 km/h (0 Bft) 0,00 %
25.06.2015 14:10 23,1 C 32 % 1021,3 hPa 0,0 l/m 3,2 km/h (1 Bft) N 350 5 min 0,000 mm 6,0 UV-I 928 W/m 5,5 C 23,1 C 4,0 km/h (1 Bft) 0,00 %
25.06.2015 14:15 23,0 C 32 % 1021,5 hPa 0,0 l/m 0,0 km/h (0 Bft) O-NO 66 5 min 0,000 mm 5,0 UV-I 926 W/m 5,4 C 23,0 C 0,0 km/h (0 Bft) 0,00 %
25.06.2015 14:20 23,0 C 31 % 1021,3 hPa 0,0 l/m 0,0 km/h (0 Bft) O-NO 57 5 min 0,000 mm 6,0 UV-I 927 W/m 5,0 C 23,0 C 0,0 km/h (0 Bft) 0,00 %
25.06.2015 14:25 23,2 C 30 % 1021,2 hPa 0,0 l/m 0,4 km/h (0 Bft) NO 56 5 min 0,000 mm 5,0 UV-I 959 W/m 4,7 C 23,2 C 4,0 km/h (1 Bft) 0,00 %
25.06.2015 14:30 23,3 C 31 % 1021,1 hPa 0,0 l/m 0,0 km/h (0 Bft) O-NO 62 5 min 0,000 mm 6,0 UV-I 949 W/m 5,2 C 23,3 C 0,0 km/h (0 Bft) 0,00 %
25.06.2015 14:35 23,2 C 33 % 1021,2 hPa 0,0 l/m 2,2 km/h (1 Bft) O-SO 102 5 min 0,000 mm 6,0 UV-I 933 W/m 6,0 C 23,2 C 4,0 km/h (1 Bft) 0,00 %
25.06.2015 14:40 23,1 C 31 % 1021,1 hPa 0,0 l/m 0,0 km/h (0 Bft) S 182 5 min 0,000 mm 5,0 UV-I 942 W/m 5,0 C 23,1 C 0,0 km/h (0 Bft) 0,00 %
25.06.2015 14:45 23,2 C 32 % 1021,2 hPa 0,0 l/m 0,7 km/h (0 Bft) S-SW 205 5 min 0,000 mm 6,0 UV-I 960 W/m 5,6 C 23,2 C 4,0 km/h (1 Bft) 0,00 %
25.06.2015 14:50 23,6 C 34 % 1021,2 hPa 0,0 l/m 0,0 km/h (0 Bft) NO 41 5 min 0,000 mm 6,0 UV-I 972 W/m 6,8 C 23,6 C 0,0 km/h (0 Bft) 0,00 %
25.06.2015 14:55 23,9 C 30 % 1021,0 hPa 0,0 l/m 0,0 km/h (0 Bft) O-NO 62 5 min 0,000 mm 6,0 UV-I 981 W/m 5,3 C 23,9 C 0,0 km/h (0 Bft) 0,00 %
25.06.2015 15:00 24,2 C 31 % 1021,0 hPa 0,0 l/m 0,0 km/h (0 Bft) N-NO 24 5 min 0,000 mm 5,0 UV-I 936 W/m 6,0 C 24,2 C 0,0 km/h (0 Bft) 0,00 %
25.06.2015 15:05 24,4 C 28 % 1020,9 hPa 0,0 l/m 0,0 km/h (0 Bft) O-NO 78 5 min 0,000 mm 5,0 UV-I 983 W/m 4,7 C 24,4 C 0,0 km/h (0 Bft) 0,00 %
25.06.2015 15:10 24,5 C 29 % 1020,9 hPa 0,0 l/m 0,0 km/h (0 Bft) N-NO 32 5 min 0,000 mm 5,0 UV-I 992 W/m 5,3 C 24,5 C 0,0 km/h (0 Bft) 0,00 %
25.06.2015 15:15 24,5 C 33 % 1020,8 hPa 0,0 l/m 0,0 km/h (0 Bft) S-SO 153 5 min 0,000 mm 5,0 UV-I 982 W/m 7,2 C 24,5 C 0,0 km/h (0 Bft) 0,00 %
25.06.2015 15:20 24,7 C 30 % 1020,7 hPa 0,0 l/m 2,9 km/h (1 Bft) W-NW 298 5 min 0,000 mm 5,0 UV-I 953 W/m 6,0 C 24,7 C 4,0 km/h (1 Bft) 0,00 %
25.06.2015 15:25 24,8 C 27 % 1020,8 hPa 0,0 l/m 0,0 km/h (0 Bft) NO 53 5 min 0,000 mm 5,0 UV-I 983 W/m 4,5 C 24,8 C 0,0 km/h (0 Bft) 0,00 %
25.06.2015 15:30 24,7 C 31 % 1020,8 hPa 0,0 l/m 0,0 km/h (0 Bft) O 95 5 min 0,000 mm 5,0 UV-I 961 W/m 6,4 C 24,7 C 0,0 km/h (0 Bft) 0,00 %
25.06.2015 15:35 24,7 C 27 % 1020,9 hPa 0,0 l/m 0,4 km/h (0 Bft) O 86 5 min 0,000 mm 5,0 UV-I 919 W/m 4,4 C 24,7 C 4,0 km/h (1 Bft) 0,00 %
25.06.2015 15:40 24,7 C 26 % 1020,8 hPa 0,0 l/m 0,4 km/h (0 Bft) NO 38 5 min 0,000 mm 4,0 UV-I 858 W/m 3,9 C 24,7 C 4,0 km/h (1 Bft) 0,00 %
25.06.2015 15:45 24,5 C 25 % 1020,8 hPa 0,0 l/m 2,9 km/h (1 Bft) N 351 5 min 0,000 mm 4,0 UV-I 769 W/m 3,2 C 24,5 C 4,0 km/h (1 Bft) 0,00 %
25.06.2015 15:50 24,2 C 30 % 1020,8 hPa 0,0 l/m 2,9 km/h (1 Bft) NW 323 5 min 0,000 mm 4,0 UV-I 860 W/m 5,5 C 24,2 C 4,0 km/h (1 Bft) 0,00 %
25.06.2015 15:55 24,2 C 28 % 1020,7 hPa 0,0 l/m 5,8 km/h (2 Bft) W-SW 256 5 min 0,000 mm 4,0 UV-I 922 W/m 4,5 C 24,2 C 7,9 km/h (2 Bft) 0,00 %
25.06.2015 16:00 24,3 C 30 % 1020,7 hPa 0,0 l/m 4,0 km/h (1 Bft) NW 324 5 min 0,000 mm 4,0 UV-I 954 W/m 5,6 C 24,3 C 4,0 km/h (1 Bft) 0,00 %
25.06.2015 16:05 24,4 C 30 % 1020,8 hPa 0,0 l/m 8,3 km/h (2 Bft) N-NW 328 5 min 0,000 mm 4,0 UV-I 863 W/m 5,7 C 23,9 C 11,9 km/h (2 Bft) 0,00 %
25.06.2015 16:10 24,5 C 30 % 1020,8 hPa 0,0 l/m 4,0 km/h (1 Bft) W-NW 293 5 min 0,000 mm 4,0 UV-I 710 W/m 5,8 C 24,5 C 7,9 km/h (2 Bft) 0,00 %
25.06.2015 16:15 24,7 C 32 % 1020,7 hPa 0,0 l/m 0,0 km/h (0 Bft) SO 137 5 min 0,000 mm 3,0 UV-I 662 W/m 6,9 C 24,7 C 0,0 km/h (0 Bft) 0,00 %
25.06.2015 16:20 24,8 C 30 % 1020,6 hPa 0,0 l/m 0,0 km/h (0 Bft) O-NO 59 5 min 0,000 mm 3,0 UV-I 600 W/m 6,0 C 24,8 C 0,0 km/h (0 Bft) 0,00 %
25.06.2015 16:25 24,6 C 26 % 1020,7 hPa 0,0 l/m 0,7 km/h (0 Bft) N-NW 327 5 min 0,000 mm 3,0 UV-I 737 W/m 3,8 C 24,6 C 4,0 km/h (1 Bft) 0,00 %
25.06.2015 16:30 24,3 C 30 % 1020,6 hPa 0,0 l/m 6,8 km/h (2 Bft) W 272 5 min 0,000 mm 3,0 UV-I 859 W/m 5,6 C 24,2 C 7,9 km/h (2 Bft) 0,00 %
25.06.2015 16:35 24,1 C 28 % 1020,7 hPa 0,0 l/m 4,3 km/h (1 Bft) W 276 5 min 0,000 mm 3,0 UV-I 904 W/m 4,4 C 24,1 C 7,9 km/h (2 Bft) 0,00 %
25.06.2015 16:40 24,0 C 31 % 1020,6 hPa 0,0 l/m 2,9 km/h (1 Bft) NW 326 5 min 0,000 mm 3,0 UV-I 855 W/m 5,8 C 24,0 C 7,9 km/h (2 Bft) 0,00 %
25.06.2015 16:45 24,2 C 28 % 1020,5 hPa 0,0 l/m 0,0 km/h (0 Bft) NO 49 5 min 0,000 mm 3,0 UV-I 934 W/m 4,5 C 24,2 C 0,0 km/h (0 Bft) 0,00 %
25.06.2015 16:50 24,4 C 28 % 1020,4 hPa 0,0 l/m 3,2 km/h (1 Bft) W-SW 256 5 min 0,000 mm 3,0 UV-I 838 W/m 4,7 C 24,4 C 7,9 km/h (2 Bft) 0,00 %
25.06.2015 16:55 24,5 C 27 % 1020,5 hPa 0,0 l/m 2,9 km/h (1 Bft) W-SW 257 5 min 0,000 mm 3,0 UV-I 866 W/m 4,3 C 24,5 C 4,0 km/h (1 Bft) 0,00 %
25.06.2015 17:00 24,7 C 30 % 1020,6 hPa 0,0 l/m 1,4 km/h (1 Bft) N-NW 331 5 min 0,000 mm 3,0 UV-I 778 W/m 6,0 C 24,7 C 4,0 km/h (1 Bft) 0,00 %
25.06.2015 17:05 24,8 C 26 % 1020,4 hPa 0,0 l/m 5,4 km/h (1 Bft) W-NW 294 5 min 0,000 mm 3,0 UV-I 569 W/m 4,0 C 24,8 C 7,9 km/h (2 Bft) 0,00 %
25.06.2015 17:10 24,7 C 27 % 1020,4 hPa 0,0 l/m 0,0 km/h (0 Bft) O-NO 59 5 min 0,000 mm 2,0 UV-I 501 W/m 4,4 C 24,7 C 0,0 km/h (0 Bft) 0,00 %
25.06.2015 17:15 24,7 C 30 % 1020,4 hPa 0,0 l/m 0,0 km/h (0 Bft) NO 49 5 min 0,000 mm 2,0 UV-I 750 W/m 6,0 C 24,7 C 0,0 km/h (0 Bft) 0,00 %
25.06.2015 17:20 24,7 C 30 % 1020,4 hPa 0,0 l/m 4,3 km/h (1 Bft) W-SW 255 5 min 0,000 mm 2,0 UV-I 867 W/m 6,0 C 24,7 C 7,9 km/h (2 Bft) 0,00 %
25.06.2015 17:25 24,6 C 30 % 1020,4 hPa 0,0 l/m 0,0 km/h (0 Bft) O-NO 76 5 min 0,000 mm 2,0 UV-I 758 W/m 5,9 C 24,6 C 0,0 km/h (0 Bft) 0,00 %
25.06.2015 17:30 24,6 C 31 % 1020,4 hPa 0,0 l/m 2,2 km/h (1 Bft) W-NW 288 5 min 0,000 mm 2,0 UV-I 562 W/m 6,3 C 24,6 C 4,0 km/h (1 Bft) 0,00 %
25.06.2015 17:35 24,6 C 30 % 1020,4 hPa 0,0 l/m 0,0 km/h (0 Bft) N-NW 348 5 min 0,000 mm 2,0 UV-I 621 W/m 5,9 C 24,6 C 0,0 km/h (0 Bft) 0,00 %
25.06.2015 17:40 24,5 C 27 % 1020,4 hPa 0,0 l/m 2,2 km/h (1 Bft) NW 307 5 min 0,000 mm 2,0 UV-I 566 W/m 4,3 C 24,5 C 4,0 km/h (1 Bft) 0,00 %
25.06.2015 17:45 24,5 C 30 % 1020,6 hPa 0,0 l/m 0,0 km/h (0 Bft) N-NW 341 5 min 0,000 mm 2,0 UV-I 488 W/m 5,8 C 24,5 C 0,0 km/h (0 Bft) 0,00 %
25.06.2015 17:50 24,4 C 29 % 1020,4 hPa 0,0 l/m 4,0 km/h (1 Bft) NW 317 5 min 0,000 mm 1,0 UV-I 449 W/m 5,2 C 24,4 C 7,9 km/h (2 Bft) 0,00 %
25.06.2015 17:55 24,2 C 30 % 1020,5 hPa 0,0 l/m 1,4 km/h (1 Bft) W-NW 294 5 min 0,000 mm 1,0 UV-I 327 W/m 5,5 C 24,2 C 4,0 km/h (1 Bft) 0,00 %
25.06.2015 18:00 24,1 C 33 % 1020,6 hPa 0,0 l/m 0,0 km/h (0 Bft) NO 54 0 min 0,000 mm 1,0 UV-I 252 W/m 6,8 C 24,1 C 0,0 km/h (0 Bft) 0,00 %
25.06.2015 18:05 24,1 C 33 % 1020,7 hPa 0,0 l/m 0,0 km/h (0 Bft) N-NO 24 5 min 0,000 mm 1,0 UV-I 267 W/m 6,8 C 24,1 C 0,0 km/h (0 Bft) 0,00 %
25.06.2015 18:10 24,0 C 34 % 1020,3 hPa 0,0 l/m 0,0 km/h (0 Bft) N-NO 30 5 min 0,000 mm 1,0 UV-I 426 W/m 7,2 C 24,0 C 0,0 km/h (0 Bft) 0,00 %
25.06.2015 18:15 23,4 C 37 % 1020,6 hPa 0,0 l/m 0,0 km/h (0 Bft) O-NO 62 5 min 0,000 mm 1,0 UV-I 516 W/m 7,9 C 23,4 C 0,0 km/h (0 Bft) 0,00 %
25.06.2015 18:20 22,6 C 36 % 1020,6 hPa 0,0 l/m 0,4 km/h (0 Bft) N 353 5 min 0,000 mm 1,0 UV-I 614 W/m 6,8 C 22,6 C 4,0 km/h (1 Bft) 0,00 %
25.06.2015 18:25 22,1 C 40 % 1020,8 hPa 0,0 l/m 3,2 km/h (1 Bft) W-NW 285 5 min 0,000 mm 1,0 UV-I 352 W/m 7,9 C 22,1 C 7,9 km/h (2 Bft) 0,00 %
25.06.2015 18:30 21,7 C 42 % 1020,8 hPa 0,0 l/m 0,7 km/h (0 Bft) NO 34 5 min 0,000 mm 1,0 UV-I 222 W/m 8,2 C 21,7 C 4,0 km/h (1 Bft) 0,00 %
25.06.2015 18:35 21,7 C 42 % 1020,8 hPa 0,0 l/m 0,0 km/h (0 Bft) O-NO 61 5 min 0,000 mm 1,0 UV-I 399 W/m 8,2 C 21,7 C 0,0 km/h (0 Bft) 0,00 %
25.06.2015 18:40 21,6 C 42 % 1020,8 hPa 0,0 l/m 0,0 km/h (0 Bft) N 9 5 min 0,000 mm 1,0 UV-I 493 W/m 8,1 C 21,6 C 0,0 km/h (0 Bft) 0,00 %
25.06.2015 18:45 21,2 C 45 % 1020,7 hPa 0,0 l/m 0,0 km/h (0 Bft) N-NO 24 5 min 0,000 mm 1,0 UV-I 656 W/m 8,8 C 21,2 C 0,0 km/h (0 Bft) 0,00 %
25.06.2015 18:50 20,9 C 43 % 1020,9 hPa 0,0 l/m 2,2 km/h (1 Bft) O-NO 66 5 min 0,000 mm 1,0 UV-I 642 W/m 7,8 C 20,9 C 4,0 km/h (1 Bft) 0,00 %
25.06.2015 18:55 21,1 C 43 % 1020,8 hPa 0,0 l/m 0,0 km/h (0 Bft) NO 38 5 min 0,000 mm 1,0 UV-I 599 W/m 8,0 C 21,1 C 0,0 km/h (0 Bft) 0,00 %
25.06.2015 19:00 21,3 C 44 % 1020,9 hPa 0,0 l/m 0,0 km/h (0 Bft) NO 35 5 min 0,000 mm 1,0 UV-I 516 W/m 8,5 C 21,3 C 0,0 km/h (0 Bft) 0,00 %
25.06.2015 19:05 21,6 C 43 % 1020,9 hPa 0,0 l/m 0,0 km/h (0 Bft) NO 50 5 min 0,000 mm 1,0 UV-I 171 W/m 8,5 C 21,6 C 0,0 km/h (0 Bft) 0,00 %
25.06.2015 19:10 21,9 C 42 % 1020,9 hPa 0,0 l/m 2,2 km/h (1 Bft) N 352 0 min 0,000 mm 1,0 UV-I 128 W/m 8,4 C 21,9 C 4,0 km/h (1 Bft) 0,00 %
25.06.2015 19:15 22,2 C 44 % 1020,7 hPa 0,0 l/m 0,0 km/h (0 Bft) NO 42 5 min 0,000 mm 1,0 UV-I 168 W/m 9,4 C 22,2 C 0,0 km/h (0 Bft) 0,00 %
25.06.2015 19:20 22,0 C 44 % 1020,9 hPa 0,0 l/m 0,7 km/h (0 Bft) N-NW 348 0 min 0,000 mm 1,0 UV-I 133 W/m 9,2 C 22,0 C 4,0 km/h (1 Bft) 0,00 %
25.06.2015 19:25 21,4 C 49 % 1020,9 hPa 0,0 l/m 0,0 km/h (0 Bft) N-NO 28 5 min 0,000 mm 1,0 UV-I 154 W/m 10,2 C 21,4 C 0,0 km/h (0 Bft) 0,00 %
25.06.2015 19:30 20,8 C 49 % 1020,9 hPa 0,0 l/m 1,8 km/h (1 Bft) N-NW 333 0 min 0,000 mm 1,0 UV-I 90 W/m 9,7 C 20,8 C 7,9 km/h (2 Bft) 0,00 %
25.06.2015 19:35 20,1 C 50 % 1021,0 hPa 0,0 l/m 1,8 km/h (1 Bft) N 350 0 min 0,000 mm 1,0 UV-I 77 W/m 9,3 C 20,1 C 4,0 km/h (1 Bft) 0,00 %
25.06.2015 19:40 19,7 C 50 % 1021,2 hPa 0,0 l/m 0,0 km/h (0 Bft) N 353 0 min 0,000 mm 1,0 UV-I 68 W/m 9,0 C 19,7 C 0,0 km/h (0 Bft) 0,00 %
25.06.2015 19:45 19,4 C 51 % 1021,0 hPa 0,0 l/m 2,9 km/h (1 Bft) N 2 0 min 0,000 mm 0,0 UV-I 60 W/m 9,0 C 19,4 C 4,0 km/h (1 Bft) 0,00 %
25.06.2015 19:50 19,2 C 52 % 1021,4 hPa 0,0 l/m 0,0 km/h (0 Bft) NO 42 0 min 0,000 mm 0,0 UV-I 56 W/m 9,1 C 19,2 C 0,0 km/h (0 Bft) 0,00 %
25.06.2015 19:55 19,0 C 53 % 1021,4 hPa 0,0 l/m 0,0 km/h (0 Bft) NO 40 0 min 0,000 mm 0,0 UV-I 48 W/m 9,2 C 19,0 C 0,0 km/h (0 Bft) 0,00 %
25.06.2015 20:00 18,9 C 53 % 1021,3 hPa 0,0 l/m 1,4 km/h (1 Bft) N 351 0 min 0,000 mm 0,0 UV-I 31 W/m 9,1 C 18,9 C 4,0 km/h (1 Bft) 0,00 %
25.06.2015 20:05 18,7 C 53 % 1021,5 hPa 0,0 l/m 0,0 km/h (0 Bft) NO 37 0 min 0,000 mm 0,0 UV-I 21 W/m 8,9 C 18,7 C 0,0 km/h (0 Bft) 0,00 %
25.06.2015 20:10 18,6 C 54 % 1021,5 hPa 0,0 l/m 0,0 km/h (0 Bft) N-NO 33 0 min 0,000 mm 0,0 UV-I 18 W/m 9,1 C 18,6 C 0,0 km/h (0 Bft) 0,00 %
25.06.2015 20:15 18,4 C 54 % 1021,5 hPa 0,0 l/m 0,0 km/h (0 Bft) N-NO 25 0 min 0,000 mm 0,0 UV-I 16 W/m 8,9 C 18,4 C 0,0 km/h (0 Bft) 0,00 %
25.06.2015 20:20 18,3 C 54 % 1021,5 hPa 0,0 l/m 0,0 km/h (0 Bft) NO 42 0 min 0,000 mm 0,0 UV-I 10 W/m 8,8 C 18,3 C 0,0 km/h (0 Bft) 0,00 %
25.06.2015 20:25 18,1 C 55 % 1021,5 hPa 0,0 l/m 0,0 km/h (0 Bft) NO 43 0 min 0,000 mm 0,0 UV-I 7 W/m 8,9 C 18,1 C 0,0 km/h (0 Bft) 0,00 %
25.06.2015 20:30 17,9 C 56 % 1021,5 hPa 0,0 l/m 0,0 km/h (0 Bft) NO 43 0 min 0,000 mm 0,0 UV-I 5 W/m 9,0 C 17,9 C 0,0 km/h (0 Bft) 0,00 %
25.06.2015 20:35 17,7 C 57 % 1021,6 hPa 0,0 l/m 0,0 km/h (0 Bft) NO 44 0 min 0,000 mm 0,0 UV-I 3 W/m 9,1 C 17,7 C 0,0 km/h (0 Bft) 0,00 %
25.06.2015 20:40 17,6 C 57 % 1021,7 hPa 0,0 l/m 0,0 km/h (0 Bft) NO 47 0 min 0,000 mm 0,0 UV-I 1 W/m 9,0 C 17,6 C 0,0 km/h (0 Bft) 0,00 %
25.06.2015 20:45 17,4 C 58 % 1021,8 hPa 0,0 l/m 0,0 km/h (0 Bft) NO 44 0 min 0,000 mm 0,0 UV-I 0 W/m 9,1 C 17,4 C 0,0 km/h (0 Bft) 0,00 %
25.06.2015 20:50 17,2 C 60 % 1021,8 hPa 0,0 l/m 0,0 km/h (0 Bft) O-NO 63 0 min 0,000 mm 0,0 UV-I 0 W/m 9,4 C 17,2 C 0,0 km/h (0 Bft) 0,00 %
25.06.2015 20:55 17,1 C 61 % 1021,9 hPa 0,0 l/m 0,0 km/h (0 Bft) O-NO 71 0 min 0,000 mm 0,0 UV-I 0 W/m 9,5 C 17,1 C 0,0 km/h (0 Bft) 0,00 %
25.06.2015 21:00 16,9 C 62 % 1021,8 hPa 0,0 l/m 0,0 km/h (0 Bft) NO 49 0 min 0,000 mm 0,0 UV-I 0 W/m 9,6 C 16,9 C 0,0 km/h (0 Bft) 0,00 %
25.06.2015 21:05 16,6 C 61 % 1021,9 hPa 0,0 l/m 0,0 km/h (0 Bft) O-NO 68 0 min 0,000 mm 0,0 UV-I 0 W/m 9,0 C 16,6 C 0,0 km/h (0 Bft) 0,00 %
25.06.2015 21:10 16,3 C 63 % 1022,1 hPa 0,0 l/m 0,0 km/h (0 Bft) O 86 0 min 0,000 mm 0,0 UV-I 0 W/m 9,2 C 16,3 C 0,0 km/h (0 Bft) 0,00 %
25.06.2015 21:15 16,2 C 64 % 1022,2 hPa 0,0 l/m 0,0 km/h (0 Bft) NO 55 0 min 0,000 mm 0,0 UV-I 0 W/m 9,4 C 16,2 C 0,0 km/h (0 Bft) 0,00 %
25.06.2015 21:20 16,0 C 66 % 1022,2 hPa 0,0 l/m 0,0 km/h (0 Bft) NO 41 0 min 0,000 mm 0,0 UV-I 0 W/m 9,7 C 16,0 C 0,0 km/h (0 Bft) 0,00 %
25.06.2015 21:25 15,9 C 67 % 1022,1 hPa 0,0 l/m 0,0 km/h (0 Bft) NO 44 0 min 0,000 mm 0,0 UV-I 0 W/m 9,8 C 15,9 C 0,0 km/h (0 Bft) 0,00 %
25.06.2015 21:30 15,6 C 69 % 1022,4 hPa 0,0 l/m 0,0 km/h (0 Bft) NO 46 0 min 0,000 mm 0,0 UV-I 0 W/m 9,9 C 15,6 C 0,0 km/h (0 Bft) 0,00 %
25.06.2015 21:35 15,4 C 69 % 1022,4 hPa 0,0 l/m 0,0 km/h (0 Bft) NO 45 0 min 0,000 mm 0,0 UV-I 0 W/m 9,7 C 15,4 C 0,0 km/h (0 Bft) 0,00 %
25.06.2015 21:40 15,2 C 70 % 1022,5 hPa 0,0 l/m 0,0 km/h (0 Bft) NO 44 0 min 0,000 mm 0,0 UV-I 0 W/m 9,8 C 15,2 C 0,0 km/h (0 Bft) 0,00 %
25.06.2015 21:45 14,9 C 71 % 1022,6 hPa 0,0 l/m 0,0 km/h (0 Bft) NO 41 0 min 0,000 mm 0,0 UV-I 0 W/m 9,7 C 14,9 C 0,0 km/h (0 Bft) 0,00 %
25.06.2015 21:50 14,8 C 72 % 1022,7 hPa 0,0 l/m 0,0 km/h (0 Bft) NO 43 0 min 0,000 mm 0,0 UV-I 0 W/m 9,8 C 14,8 C 0,0 km/h (0 Bft) 0,00 %
25.06.2015 21:55 14,7 C 73 % 1022,6 hPa 0,0 l/m 0,0 km/h (0 Bft) NO 44 0 min 0,000 mm 0,0 UV-I 0 W/m 9,9 C 14,7 C 0,0 km/h (0 Bft) 0,00 %
25.06.2015 22:00 14,6 C 74 % 1022,5 hPa 0,0 l/m 0,0 km/h (0 Bft) NO 41 0 min 0,000 mm 0,0 UV-I 0 W/m 10,0 C 14,6 C 0,0 km/h (0 Bft) 0,00 %
25.06.2015 22:05 14,4 C 74 % 1022,7 hPa 0,0 l/m 0,0 km/h (0 Bft) NO 46 0 min 0,000 mm 0,0 UV-I 0 W/m 9,8 C 14,4 C 0,0 km/h (0 Bft) 0,00 %
25.06.2015 22:10 14,4 C 75 % 1022,9 hPa 0,0 l/m 0,0 km/h (0 Bft) NO 45 0 min 0,000 mm 0,0 UV-I 0 W/m 10,0 C 14,4 C 0,0 km/h (0 Bft) 0,00 %
25.06.2015 22:15 14,2 C 76 % 1022,7 hPa 0,0 l/m 0,0 km/h (0 Bft) NO 46 0 min 0,000 mm 0,0 UV-I 0 W/m 10,0 C 14,2 C 0,0 km/h (0 Bft) 0,00 %
25.06.2015 22:20 14,1 C 76 % 1022,9 hPa 0,0 l/m 0,0 km/h (0 Bft) NO 41 0 min 0,000 mm 0,0 UV-I 0 W/m 9,9 C 14,1 C 0,0 km/h (0 Bft) 0,00 %
25.06.2015 22:25 14,0 C 76 % 1023,0 hPa 0,0 l/m 0,0 km/h (0 Bft) NO 43 0 min 0,000 mm 0,0 UV-I 0 W/m 9,8 C 14,0 C 0,0 km/h (0 Bft) 0,00 %
25.06.2015 22:30 14,0 C 78 % 1022,9 hPa 0,0 l/m 0,0 km/h (0 Bft) NO 48 0 min 0,000 mm 0,0 UV-I 0 W/m 10,2 C 14,0 C 0,0 km/h (0 Bft) 0,00 %
25.06.2015 22:35 13,9 C 78 % 1022,9 hPa 0,0 l/m 0,0 km/h (0 Bft) NO 48 0 min 0,000 mm 0,0 UV-I 0 W/m 10,1 C 13,9 C 0,0 km/h (0 Bft) 0,00 %
25.06.2015 22:40 13,7 C 78 % 1022,9 hPa 0,0 l/m 0,0 km/h (0 Bft) NO 38 0 min 0,000 mm 0,0 UV-I 0 W/m 9,9 C 13,7 C 0,0 km/h (0 Bft) 0,00 %
25.06.2015 22:45 13,6 C 78 % 1023,0 hPa 0,0 l/m 0,0 km/h (0 Bft) NO 43 0 min 0,000 mm 0,0 UV-I 0 W/m 9,8 C 13,6 C 0,0 km/h (0 Bft) 0,00 %
25.06.2015 22:50 13,5 C 79 % 1022,9 hPa 0,0 l/m 0,0 km/h (0 Bft) NO 41 0 min 0,000 mm 0,0 UV-I 0 W/m 9,9 C 13,5 C 0,0 km/h (0 Bft) 0,00 %
25.06.2015 22:55 13,5 C 81 % 1022,9 hPa 0,0 l/m 0,0 km/h (0 Bft) NO 48 0 min 0,000 mm 0,0 UV-I 0 W/m 10,3 C 13,5 C 0,0 km/h (0 Bft) 0,00 %
25.06.2015 23:00 13,4 C 81 % 1023,1 hPa 0,0 l/m 0,0 km/h (0 Bft) NO 44 0 min 0,000 mm 0,0 UV-I 0 W/m 10,2 C 13,4 C 0,0 km/h (0 Bft) 0,00 %
25.06.2015 23:05 13,4 C 81 % 1023,0 hPa 0,0 l/m 0,0 km/h (0 Bft) NO 44 0 min 0,000 mm 0,0 UV-I 0 W/m 10,2 C 13,4 C 0,0 km/h (0 Bft) 0,00 %
25.06.2015 23:10 13,3 C 81 % 1023,0 hPa 0,0 l/m 0,0 km/h (0 Bft) NO 44 0 min 0,000 mm 0,0 UV-I 0 W/m 10,1 C 13,3 C 0,0 km/h (0 Bft) 0,00 %
25.06.2015 23:15 13,2 C 82 % 1023,0 hPa 0,0 l/m 0,0 km/h (0 Bft) NO 48 0 min 0,000 mm 0,0 UV-I 0 W/m 10,2 C 13,2 C 0,0 km/h (0 Bft) 0,00 %
25.06.2015 23:20 13,2 C 82 % 1023,3 hPa 0,0 l/m 0,0 km/h (0 Bft) NO 41 0 min 0,000 mm 0,0 UV-I 0 W/m 10,2 C 13,2 C 0,0 km/h (0 Bft) 0,00 %
25.06.2015 23:25 13,2 C 81 % 1023,3 hPa 0,0 l/m 0,0 km/h (0 Bft) NO 38 0 min 0,000 mm 0,0 UV-I 0 W/m 10,0 C 13,2 C 0,0 km/h (0 Bft) 0,00 %
25.06.2015 23:30 13,3 C 81 % 1022,9 hPa 0,0 l/m 0,0 km/h (0 Bft) NO 42 0 min 0,000 mm 0,0 UV-I 0 W/m 10,1 C 13,3 C 0,0 km/h (0 Bft) 0,00 %
25.06.2015 23:35 13,4 C 80 % 1023,0 hPa 0,0 l/m 0,0 km/h (0 Bft) NO 37 0 min 0,000 mm 0,0 UV-I 0 W/m 10,0 C 13,4 C 0,0 km/h (0 Bft) 0,00 %
25.06.2015 23:40 13,5 C 80 % 1023,1 hPa 0,0 l/m 0,0 km/h (0 Bft) NO 45 0 min 0,000 mm 0,0 UV-I 0 W/m 10,1 C 13,5 C 0,0 km/h (0 Bft) 0,00 %
25.06.2015 23:45 13,7 C 80 % 1023,1 hPa 0,0 l/m 0,0 km/h (0 Bft) NO 43 0 min 0,000 mm 0,0 UV-I 0 W/m 10,3 C 13,7 C 0,0 km/h (0 Bft) 0,00 %
25.06.2015 23:50 13,7 C 79 % 1023,1 hPa 0,0 l/m 0,0 km/h (0 Bft) NO 37 0 min 0,000 mm 0,0 UV-I 0 W/m 10,1 C 13,7 C 0,0 km/h (0 Bft) 0,00 %
25.06.2015 23:55 13,8 C 79 % 1023,2 hPa 0,0 l/m 0,0 km/h (0 Bft) NO 43 0 min 0,000 mm 0,0 UV-I 0 W/m 10,2 C 13,8 C 0,0 km/h (0 Bft) 0,00 %
_ Min-Zeit 05:15 15:45 18:10 - 00:00 - - - - - - 15:45 05:15 00:00 00:00
Minimum _ 6,2 C 25 % 1020,3 hPa - 0,0 km/h (0 Bft) - - - - - - 3,2 C 6,2 C 0,0 km/h (0 Bft) 0,00 %
_ Max-Zeit 15:25 04:15 05:10 00:00 12:05 - - 05:20 00:00 12:25 15:10 06:25 15:25 12:05 00:00
Maximum _ 24,8 C 96 % 1025,1 hPa 0,0 l/m 8,3 km/h
O-NO (2 Bft)
- - 5 min 0,000 mm 6,0 UV-I 992 W/m 11,5 C 24,8 C 11,9 km/h
O-NO (2 Bft)
0,00 %
Durchschnitt _ 16,6 C 62 % 1022,7 hPa #0,0 l/m 0,6 km/h (0 Bft) W-NW - #13:55 h #0,000 mm 3,2 UV-I 566 W/m 7,9 C 16,6 C 1,4 km/h (1 Bft) 0,00 %